Regional Weather Roundup
Issued by NWS

Home | Current Version | Previous Version | Text Only | Print | Product List | Glossary Off
Versions: 1 2 3 4 5 6 7 8 9 10 11 12 13 14 15 16 17 18 19 20 21 22 23 24 25 26 27 28 29 30 31 32 33 34 35 36 37 38 39 40 41 42 43 44 45 46 47 48 49 50

000
ASUS43 KIND 221909
RWRIN

WEATHER ROUNDUP FOR INDIANA
NATIONAL WEATHER SERVICE INDIANAPOLIS IN
300 PM EDT THU JUN 22 2017

NOTE: "FAIR" INDICATES FEW OR NO CLOUDS BELOW 12,000 FEET WITH NO
SIGNIFICANT WEATHER AND/OR OBSTRUCTIONS TO VISIBILITY.

* - STATION DOES NOT REPORT WEATHER SUCH AS PRECIPITATION OR FOG.

+ - STATION NOT QUALITY CONTROLLED BY THE NATIONAL WEATHER SERVICE.
    USE DATA WITH CAUTION...ESPECIALLY DEWPOINT AND RELATIVE
    HUMIDITY OBSERVATIONS.

INZ001>003-010>013-019-020-222000-
NORTHWEST INDIANA

CITY           SKY/WX    TMP DP  RH WIND       PRES   REMARKS
GARY /AIRPORT/ PTSUNNY   86  68  54 S14       29.81F
KNOX *+        PTSUNNY   84  57  39 SW15G23   29.84S
LA PORTE +     CLOUDY    85  69  59 SW13G21   29.85S
MICHIGAN CITY+ CLOUDY    86  68  54 S13G22    29.83F
MONTICELLO +   CLOUDY    83  70  64 S13G18    29.85F
RENSSELAER +   CLOUDY    86  68  54 S17G25    29.84F
VALPARAISO     CLOUDY    87  70  56 S18       29.83F

$$

LMZ046-743>745-222000-
SOUTHERN LAKE MICHIGAN

STATION/POSITION TIME  TEMP    WIND        PRES    WAVE
                       AIR SEA DIR/SP/G            HT
                 (UTC) (F)     (DEG/KT/KT) (MB)    (FT)
BURNS HARBOR     1840   83     200/ 16/ 21 1010.2S
MICHIGAN CITY    1840   81     200/ 16/ 17   N/A
5NW MICH CITY    1900   79 68  210/ 14/ 19   N/A     1

$$

INZ004-005-014>016-021>024-222000-
NORTH CENTRAL INDIANA

CITY           SKY/WX    TMP DP  RH WIND       PRES   REMARKS
ELKHART        PTSUNNY   84  68  58 SW17G29   29.85F
GOSHEN         PTSUNNY   84  68  58 SW17      29.85F
LOGANSPORT +   CLOUDY    82  70  65 S14       29.88F
PERU/GRISSOM   MOSUNNY   85  72  66 S21       29.87F
ROCHESTER +    PTSUNNY   86  70  58 S16G24    29.87F
SOUTH BEND     PTSUNNY   86  70  58 SW17      29.84F
WARSAW +       CLOUDY    82  68  61 SW12G17   29.87F

$$

INZ006>009-017-018-025>027-222000-
NORTHEAST INDIANA

CITY           SKY/WX    TMP DP  RH WIND       PRES   REMARKS
AUBURN +       CLOUDY    82  68  61 SW9       29.88F
FORT WAYNE     PTSUNNY   86  68  54 S22G29    29.88F
KENDALLVILLE + PTSUNNY   84  69  61 SW17      29.88F

$$

INZ028-029-035-036-043>045-051>053-222000-
WEST CENTRAL INDIANA

CITY           SKY/WX    TMP DP  RH WIND       PRES   REMARKS
CRAWFORDSVL +  CLOUDY    80  71  73 S15G21    29.90F
GREENCASTLE +  CLOUDY    79  68  69 S10G16    29.92F
LAFAYETTE      PTSUNNY   81  71  71 S12G22    29.85F
TERRE HAUTE    CLOUDY    79  72  79 S13       29.90F HAZE

$$

INZ030>032-037>040-046>048-054>057-064-065-222000-
CENTRAL INDIANA

CITY           SKY/WX    TMP DP  RH WIND       PRES   REMARKS
ANDERSON         N/A     82  70  65 MISG        N/A
CP ATTERBURY + PTSUNNY   81  70  69 S13       29.94F
COLUMBUS       CLOUDY    81  66  61 S18G25    29.95F
FRANKFORT +    CLOUDY    85  73  65 SW9G17    29.91F
INDIANAPOLIS   CLOUDY    82  69  64 S18G24    29.91F
-EAGLE CREEK   PTSUNNY   82  69  64 S12G20    29.91F
KOKOMO +       PTSUNNY   84  71  65 S18       29.89F
MARION +       PTSUNNY   82  70  65 S17       29.91F HAZE
MT COMFORT *+  PTSUNNY   82  68  61 S16G22    29.93F
SHELBYVILLE    CLOUDY    84  68  58 S17       29.94F
ZIONSVILLE +   CLOUDY    82  69  65 S14       29.92F

$$

INZ033-034-041-042-049-050-058-059-222000-
EAST CENTRAL INDIANA

CITY           SKY/WX    TMP DP  RH WIND       PRES   REMARKS
MUNCIE         PTSUNNY   86  70  58 S12G26    29.92F
RICHMOND +     CLOUDY    79  68  69 S13       29.99S

$$

INZ060-061-067>069-081>083-085>088-222000-
SOUTHWEST INDIANA

CITY           SKY/WX    TMP DP  RH WIND       PRES   REMARKS
EVANSVILLE     LGT RAIN  74  71  91 SE10G16   29.91F FOG
HUNTINGBURG *+ RAIN      72  71  97 SE12      29.93F FOG
WASHINGTON +   RAIN      74  70  87 S15       29.92F

$$

INZ062-063-066-070>080-084-089>092-222000-
SOUTH CENTRAL AND SOUTHEAST INDIANA

CITY           SKY/WX    TMP DP  RH WIND       PRES   REMARKS
BEDFORD +      CLOUDY    77  66  69 S13       29.94F
BLOOMINGTON    CLOUDY    77  70  79 S12       29.94S
MADISON *+     CLOUDY    81  64  57 S15       30.00F
NORTH VERNON + CLOUDY    77  68  73 S12G20    29.98
SEYMOUR +      CLOUDY    79  68  69 S13       29.96

$$





USA.gov is the U.S. government's official web portal to all federal, state and local government web resources and services.